Natchez, MS

2:21 AM CST on November 21, 2019 (GMT -0600)
Hardy-Anders-Adams County

Weather History for KHEZ - September, 2019

Change the Weather History Date:

Sunday, September 8, 2019

  Actual Average Record
Temperature  
Mean Temperature 84 °F -  
Max Temperature 95 °F 89 °F 97 °F (1972)
Min Temperature 73 °F 68 °F 51 °F (2011)
Cooling Degree Days 19    
Growing Degree Days 34 (Base 50)    
Moisture  
Dew Point 72 °F    
Average Humidity 72    
Maximum Humidity 93    
Minimum Humidity 44    
Precipitation  
Precipitation 0.00 in - - ()
Sea Level Pressure  
Sea Level Pressure 30.00 in    
Wind  
Wind Speed 2 mph (SSW)    
Max Wind Speed 6 mph    
Max Gust Speed -    
Visibility 10 miles    
Events      
Averages and records for this station are not official NWS values.
T = Trace of Precipitation, MM = Missing Value Source: NWS Daily Summary

Daily Weather History Graph

Daily Weather History Graph

Search for Another Location

Airport or City:

Astronomy

Sep. 08, 2019 Rise Set
Actual Time 6:44 AM CDT 7:20 PM CDT
Civil Twilight 6:20 AM CDT 7:44 PM CDT
Nautical Twilight 5:51 AM CDT 8:13 PM CDT
Astronomical Twilight 5:22 AM CDT 8:43 PM CDT
Moon 4:11 PM CDT (9/8) 1:42 AM CDT (9/8)
Length of Visible Light 13h 24m
Length of Day
12h 35m
Waxing Gibbous, 75% of the Moon is Illuminated
Sep 8
Waxing Gibbous
Sep 13
Full
Sep 21
Last Quarter
Sep 28
New
Oct 5
First Quarter

Hourly Weather History & Observations

Time (CDT) Temp. Heat Index Dew Point Humidity Pressure Visibility Wind Dir Wind Speed Gust Speed Precip Events Conditions
12:56 AM 77.0 °F - 73.0 °F 88% 29.98 in 10.0 mi Calm Calm - N/A   Clear
1:56 AM 75.9 °F - 72.0 °F 87% 29.97 in 10.0 mi Calm Calm - N/A   Clear
2:56 AM 75.0 °F - 72.0 °F 90% 29.97 in 10.0 mi SSW 4.6 mph - N/A   Clear
4:56 AM 73.9 °F - 72.0 °F 93% 29.98 in 9.0 mi Calm Calm - N/A   Clear
5:56 AM 73.0 °F - 71.1 °F 93% 30.00 in 8.0 mi Calm Calm - N/A   Clear
6:56 AM 73.0 °F - 71.1 °F 93% 30.02 in 6.0 mi South 3.5 mph - N/A   Clear
7:56 AM 75.9 °F - 73.0 °F 91% 30.04 in 8.0 mi South 3.5 mph - N/A   Clear
8:56 AM 81.0 °F 85.2 °F 72.0 °F 74% 30.04 in 10.0 mi NW 3.5 mph - N/A   Clear
9:56 AM 84.0 °F 89.0 °F 71.1 °F 65% 30.05 in 10.0 mi Variable 3.5 mph - N/A   Clear
10:56 AM 88.0 °F 94.7 °F 72.0 °F 59% 30.04 in 10.0 mi Calm Calm - N/A   Clear
11:56 AM 91.0 °F 99.3 °F 73.0 °F 55% 30.03 in 10.0 mi Variable 3.5 mph - N/A   Clear
12:56 PM 93.0 °F 100.7 °F 72.0 °F 50% 30.03 in 10.0 mi North 5.8 mph - N/A   Clear
1:56 PM 95.0 °F 102.5 °F 71.1 °F 46% 30.01 in 10.0 mi NW 4.6 mph - N/A   Clear
2:56 PM 95.0 °F 102.5 °F 71.1 °F 46% 29.99 in 10.0 mi East 3.5 mph - N/A   Partly Cloudy
3:56 PM 95.0 °F 101.3 °F 70.0 °F 44% 29.98 in 10.0 mi Calm Calm - N/A   Partly Cloudy
4:56 PM 91.9 °F 100.7 °F 73.0 °F 54% 29.97 in 10.0 mi SSW 5.8 mph - N/A   Clear
5:56 PM 93.0 °F 100.1 °F 71.1 °F 49% 29.97 in 10.0 mi SSW 4.6 mph - N/A   Clear
6:56 PM 89.1 °F 97.0 °F 73.0 °F 59% 29.97 in 10.0 mi SSW 3.5 mph - N/A   Clear
7:56 PM 82.9 °F 90.2 °F 75.0 °F 77% 29.98 in 10.0 mi SSE 3.5 mph - N/A   Partly Cloudy
8:56 PM 81.0 °F 86.7 °F 75.0 °F 82% 30.00 in 10.0 mi Calm Calm - N/A   Scattered Clouds
9:56 PM 80.1 °F 84.5 °F 73.9 °F 81% 30.01 in 10.0 mi Calm Calm - N/A   Clear
10:56 PM 78.1 °F - 73.9 °F 87% 30.01 in 10.0 mi SSE 3.5 mph - N/A   Clear
11:56 PM 78.1 °F - 73.9 °F 87% 30.01 in 10.0 mi Calm Calm - N/A   Clear